1302912034525,18.3385
1302912094525,18.3236
1302912154525,18.3213
1302912214525,18.3374
1302912274525,18.3380
1302912334525,18.3967
1302912394525,18.3289
1302912454525,18.3593
1302912514525,18.3804
1302912574525,18.3292
1302912634525,18.3661
1302912694525,18.3408
1302912754525,18.3242
1302912814525,18.2932
1302912874525,18.2649
1302912934525,18.2982
1302912994525,18.2773
1302913054525,18.2292
1302913114525,18.2717
1302913174525,18.2981
1302913234525,18.2693
1302913294525,18.3353
1302913354525,18.2388
1302913414525,18.2610
1302913474525,18.3003
1302913534525,18.3187
1302913594525,18.3638
1302913654525,18.3192
1302913714525,18.3004
1302913774525,18.2672
1302913834525,18.2181
1302913894525,18.2427
1302913954525,18.3255
1302914014525,18.2677
1302914074525,18.3184
1302914134525,18.2598
1302914194525,18.3370
1302914254525,18.3360
1302914314525,18.3296
1302914374525,18.3672
1302914434525,18.4147
1302914494525,18.3440
1302914554525,18.2681
1302914614525,18.3257
1302914674525,18.3921
1302914734525,18.3691
1302914794525,18.3501
1302914854525,18.4436
1302914914525,18.4236
1302914974525,18.4355
1302915034525,18.3523
1302915094525,18.4308
1302915154525,18.4134
1302915214525,18.4035
1302915274525,18.3890
1302915334525,18.4090
1302915394525,18.3893
1302915454525,18.4225
1302915514525,18.4341
1302915574525,18.4409
1302915634536,18.4236
1302915694536,18.4136
1302915754536,18.4088
1302915814536,18.4498
1302915874536,18.4403
1302915934536,18.4263
1302915994536,18.3805
1302916054536,18.4012
1302916114536,18.4044
1302916174536,18.4150
1302916234536,18.4409
1302916294536,18.4133
1302916354536,18.4346
1302916414536,18.4461
1302916474536,18.4677
1302916534536,18.4594
1302916594536,18.4795
1302916654536,18.5174
1302916714536,18.4696
1302916774536,18.4469
1302916834536,18.4035
1302916894536,18.4378
1302916954536,18.4704
1302917014536,18.4811
1302917074536,18.4031
1302917134536,18.3926
1302917194536,18.3800
1302917254536,18.3974
1302917314536,18.3752
1302917374536,18.3606
1302917434536,18.3625
1302917494536,18.3638
1302917554536,18.3761
1302917614536,18.3171
1302917674536,18.4161
1302917734536,18.3233
1302917794536,18.3429
1302917854536,18.3331
1302917914536,18.3582
1302917974536,18.3177
1302918034536,18.3827
1302918094536,18.4116
1302918154536,18.4017
1302918214536,18.3691
1302918274536,18.2878
1302918334536,18.3197
1302918394536,18.2806
1302918454536,18.3088
1302918514536,18.3570
1302918574536,18.3032
1302918634536,18.3922
1302918694536,18.3647
1302918754536,18.2603
1302918814536,18.2878
1302918874536,18.2287
1302918934536,18.2501
1302918994536,18.2766
1302919054536,18.2877
1302919114536,18.3260
1302919174536,18.3237
1302919234548,18.3334
1302919294548,18.3178
1302919354548,18.3085
1302919414548,18.3094
1302919474548,18.3273
1302919534548,18.3028
1302919594548,18.3413
1302919654548,18.3308
1302919714548,18.3081
1302919774548,18.3325
1302919834548,18.3436
1302919894548,18.2522
1302919954548,18.2777
1302920014548,18.2267
1302920074548,18.3569
1302920134548,18.3218
1302920194548,18.3043
1302920254548,18.3282
1302920314548,18.2863
1302920374548,18.3238
1302920434548,18.3054
1302920494548,18.3511
1302920554548,18.3517
1302920614548,18.2898
1302920674548,18.2467
1302920734548,18.2766
1302920794548,18.2492
1302920854548,18.2390
1302920914548,18.2701
1302920974548,18.2700
1302921034548,18.2960
1302921094548,18.2549
1302921154548,18.3171
1302921214548,18.3819
1302921274548,18.4851
1302921334548,18.3750
1302921394548,18.3786
1302921454548,18.3442
1302921514548,18.3528
1302921574548,18.3567
1302921634548,18.3303
1302921694548,18.3066
1302921754548,18.3024
1302921814548,18.3297
1302921874548,18.3581
1302921934548,18.2901
1302921994548,18.2913
1302922054548,18.2494
1302922114548,18.2496
1302922174548,18.2851
1302922234548,18.3195
1302922294548,18.2981
1302922354548,18.2823
1302922414548,18.2604
1302922474548,18.2977
1302922534548,18.3352
1302922594548,18.3385
1302922654548,18.3476
1302922714548,18.3400
1302922774548,18.3347
1302922834559,18.3727
1302922894559,18.3067
1302922954559,18.3047
1302923014559,18.3442
1302923074559,18.3525
1302923134559,18.3698
1302923194559,18.3064
1302923254559,18.3667
1302923314559,18.3804
1302923374559,18.3519
1302923434559,18.4335
1302923494559,18.4960
1302923554559,18.3911
1302923614559,18.4041
1302923674559,18.3851
1302923734559,18.3173
1302923794559,18.3411
1302923854559,18.3159
1302923914559,18.3130
1302923974559,18.2448
1302924034559,18.2841
1302924094559,18.2972
1302924154559,18.3870
1302924214559,18.3885
1302924274559,18.3961
1302924334559,18.3846
1302924394559,18.3869
1302924454559,18.3325
1302924514559,18.3164
1302924574559,18.3710
1302924634559,18.3578
1302924694559,18.3116
1302924754559,18.3408
1302924814559,18.2434
1302924874559,18.3148
1302924934559,18.2748
1302924994559,18.2819
1302925054559,18.2192
1302925114559,18.2386
1302925174559,18.2830
1302925234559,18.2742
1302925294559,18.2265
1302925354559,18.2709
1302925414559,18.2727
1302925474559,18.2080
1302925534559,18.2241
1302925594559,18.1781
1302925654559,18.2535
1302925714559,18.2006
1302925774559,18.2524
1302925834559,18.2621
1302925894559,18.2333
1302925954559,18.2608
1302926014559,18.2871
1302926074559,18.2031
1302926134559,18.2108
1302926194559,18.2126
1302926254559,18.2553
1302926314559,18.2229
1302926374559,18.2815
1302926434570,18.2115
1302926494570,18.2633
1302926554570,18.3185
1302926614570,18.3896
1302926674570,18.4865
1302926734570,18.5416
1302926794570,18.4586
1302926854570,18.4372
1302926914570,18.3919
1302926974570,18.4784
1302927034570,18.4418
1302927094570,18.4724
1302927154570,18.4215
1302927214570,18.4035
1302927274570,18.3272
1302927334570,18.2761
1302927394570,18.2697
1302927454570,18.3042
1302927514570,18.2788
1302927574570,18.3430
1302927634570,18.2966
1302927694570,18.2552
1302927754570,18.2603
1302927814570,18.2332
1302927874570,18.2327
1302927934570,18.2094
1302927994570,18.2153
1302928054570,18.1970
1302928114570,18.2736
1302928174570,18.2220
1302928234570,18.2776
1302928294570,18.2627
1302928354570,18.2563
1302928414570,18.2815
1302928474570,18.2497
1302928534570,18.2323
1302928594570,18.2777
1302928654570,18.2609
1302928714570,18.2029
1302928774570,18.2289
1302928834570,18.2211
1302928894570,18.2522
1302928954570,18.2656
1302929014570,18.2541
1302929074570,18.2405
1302929134570,18.2333
1302929194570,18.2333
1302929254570,18.2540
1302929314570,18.2294
1302929374570,18.2355
1302929434570,18.2868
1302929494570,18.1548
1302929554570,18.2164
1302929614570,18.2042
1302929674570,18.2053
1302929734570,18.1917
1302929794570,18.2294
1302929854570,18.2397
1302929914570,18.1658
1302929974570,18.2150
1302930034581,18.2063
1302930094581,18.2776
1302930154581,18.3220
1302930214581,18.3254
1302930274581,18.2959
1302930334581,18.2672
1302930394581,18.2598
1302930454581,18.2701
1302930514581,18.2455
1302930574581,18.2365
1302930634581,18.2254
1302930694581,18.1807
1302930754581,18.1841
1302930814581,18.1610
1302930874581,18.1577
1302930934581,18.2136
1302930994581,18.2186
1302931054581,18.2391
1302931114581,18.2259
1302931174581,18.2908
1302931234581,18.3040
1302931294581,18.2436
1302931354581,18.2009
1302931414581,18.2453
1302931474581,18.2232
1302931534581,18.2965
1302931594581,18.2814
1302931654581,18.2641
1302931714581,18.2805
1302931774581,18.2883
1302931834581,18.2948
1302931894581,18.2592
1302931954581,18.3019
1302932014581,18.2598
1302932074581,18.3042
1302932134581,18.3359
1302932194581,18.3639
1302932254581,18.3605
1302932314581,18.3673
1302932374581,18.3207
1302932434581,18.3532
1302932494581,18.4029
1302932554581,18.3427
1302932614581,18.4177
1302932674581,18.4171
1302932734581,18.4229
1302932794581,18.3648
1302932854581,18.3545
1302932914581,18.2881
1302932974581,18.2983
1302933034581,18.3766
1302933094581,18.4504
1302933154581,18.3425
1302933214581,18.3059
1302933274581,18.2632
1302933334581,18.2993
1302933394581,18.2742
1302933454581,18.2233
1302933514581,18.2491
1302933574581,18.2264
1302933634592,18.2379
1302933694592,18.2217
1302933754592,18.2462
1302933814592,18.2382
1302933874592,18.2616
1302933934592,18.2299
1302933994592,18.2688
1302934054592,18.2513
1302934114592,18.2906
1302934174592,18.2133
1302934234592,18.2410
1302934294592,18.2365
1302934354592,18.2184
1302934414592,18.2424
1302934474592,18.2155
1302934534592,18.2727
1302934594592,18.2033
1302934654592,18.2544
1302934714592,18.2173
1302934774592,18.1541
1302934834592,18.2475
1302934894592,18.2443
1302934954592,18.1924
1302935014592,18.2047
1302935074592,18.1908
1302935134592,18.2069
1302935194592,18.2184
1302935254592,18.2453
1302935314592,18.1961
1302935374592,18.2226
1302935434592,18.2253
1302935494592,18.2408
1302935554592,18.2195
1302935614592,18.2673
1302935674592,18.2541
1302935734592,18.2009
1302935794592,18.1801
1302935854592,18.2394
1302935914592,18.2023
1302935974592,18.1873
1302936034592,18.2374
1302936094592,18.2130
1302936154592,18.2171
1302936214592,18.1630
1302936274592,18.1409
1302936334592,18.1769
1302936394592,18.1855
1302936454592,18.2002
1302936514592,18.1929
1302936574592,18.2029
1302936634592,18.1838
1302936694592,18.1590
1302936754592,18.1386
1302936814592,18.1537
1302936874592,18.1755
1302936934592,18.1934
1302936994592,18.2109
1302937054592,18.1644
1302937114592,18.1948
1302937174592,18.1366
1302937234603,18.2093
1302937294603,18.2165
1302937354603,18.2074
1302937414603,18.2141
1302937474603,18.2925
1302937534603,18.1883
1302937594603,18.1933
1302937654603,18.1941
1302937714603,18.1904
1302937774603,18.1818
1302937834603,18.1730
1302937894603,18.1473
1302937954603,18.1769
1302938014603,18.1896
1302938074603,18.2180
1302938134603,18.1685
1302938194603,18.1540
1302938254603,18.1590
1302938314603,18.1560
1302938374603,18.1655
1302938434603,18.1910
1302938494603,18.1792
1302938554603,18.2014
1302938614603,18.1605
1302938674603,18.1896
1302938734603,18.2454
1302938794603,18.2663
1302938854603,18.2502
1302938914603,18.2505
1302938974603,18.2909
1302939034603,18.2451
1302939094603,18.2106
1302939154603,18.2058
1302939214603,18.2206
1302939274603,18.1692
1302939334603,18.1887
1302939394603,18.2090
1302939454603,18.1608
1302939514603,18.1392
1302939574603,18.1355
1302939634603,18.1769
1302939694603,18.1494
1302939754603,18.2065
1302939814603,18.1453
1302939874603,18.1675
1302939934603,18.1969
1302939994603,18.2063
1302940054603,18.1807
1302940114603,18.1149
1302940174603,18.2355
1302940234603,18.1942
1302940294603,18.2021
1302940354603,18.2135
1302940414603,18.1386
1302940474603,18.1461
1302940534603,18.1266
1302940594603,18.1742
1302940654603,18.1885
1302940714603,18.1304
1302940774603,18.1316
1302940834614,18.1297
1302940894614,18.1164
1302940954614,18.0799
1302941014614,18.0887
1302941074614,18.1078
1302941134614,18.0880
1302941194614,18.0674
1302941254614,18.0565
1302941314614,18.0944
1302941374614,18.0552
1302941434614,18.0896
1302941494614,18.0685
1302941554614,18.0982
1302941614614,18.0854
1302941674614,18.0629
1302941734614,18.0776
1302941794614,18.0994
1302941854614,18.1069
1302941914614,18.0703
1302941974614,18.0892
1302942034614,18.0420
1302942094614,18.1351
1302942154614,18.0904
1302942214614,18.0584
1302942274614,18.0534
1302942334614,18.0554
1302942394614,18.0518
1302942454614,18.0625
1302942514614,18.0953
1302942574614,18.0925
1302942634614,18.0826
1302942694614,18.0689
1302942754614,18.1176
1302942814614,18.2756
1302942874614,18.0419
1302942934614,18.0263
1302942994614,18.0606
1302943054614,18.0034
1302943114614,18.0158
1302943174614,18.0706
1302943234614,18.1158
1302943294614,18.0879
1302943354614,18.0801
1302943414614,18.0788
1302943474614,18.0419
1302943534614,18.1005
1302943594614,18.0426
1302943654614,18.0915
1302943714614,18.0793
1302943774614,18.0614
1302943834614,18.0762
1302943894614,18.0765
1302943954614,18.0632
1302944014614,18.0576
1302944074614,18.0907
1302944134614,18.0883
1302944194614,18.1239
1302944254614,18.0896
1302944314614,18.0940
1302944374614,18.1038
1302944434625,18.0857
1302944494625,18.0688
1302944554625,18.1347
1302944614625,18.1892
1302944674625,18.2179
1302944734625,18.1492
1302944794625,18.1007
1302944854625,18.1298
1302944914625,18.1127
1302944974625,18.0885
1302945034625,18.1273
1302945094625,18.1109
1302945154625,18.0806
1302945214625,18.0935
1302945274625,18.0361
1302945334625,18.0544
1302945394625,18.0672
1302945454625,18.1026
1302945514625,18.1321
1302945574625,18.0952
1302945634625,18.1396
1302945694625,18.1732
1302945754625,18.1671
1302945814625,18.2165
1302945874625,18.1873
1302945934625,18.1757
1302945994625,18.1087
1302946054625,18.1303
1302946114625,18.1037
1302946174625,18.1372
1302946234625,18.1296
1302946294625,18.0986
1302946354625,18.1332
1302946414625,18.1255
1302946474625,18.1183
1302946534625,18.0893
1302946594625,18.1133
1302946654625,18.1134
1302946714625,18.1292
1302946774625,18.1264
1302946834625,18.1023
1302946894625,18.1169
1302946954625,18.1443
1302947014625,18.1590
1302947074625,18.1163
1302947134625,18.1441
1302947194625,18.0934
1302947254625,18.1648
1302947314625,18.1397
1302947374625,18.1316
1302947434625,18.1326
1302947494625,18.1125
1302947554625,18.1344
1302947614625,18.1217
1302947674625,18.1403
1302947734625,18.0981
1302947794625,18.1025
1302947854625,18.1267
1302947914625,18.1060
1302947974625,18.0586
1302948034637,18.1166
1302948094637,18.0942
1302948154637,18.1423
1302948214637,18.1437
1302948274637,18.1334
1302948334637,18.1712
1302948394637,18.1187
1302948454637,18.1109
1302948514637,18.1007
1302948574637,18.0762
1302948634637,18.1039
1302948694637,18.0838
1302948754637,18.1176
1302948814637,18.1397
1302948874637,18.1112
1302948934637,18.0870
1302948994637,18.1324
1302949054637,18.0882
1302949114637,18.1439
1302949174637,18.0752
1302949234637,18.1540
1302949294637,18.1886
1302949354637,18.1635
1302949414637,18.1520
1302949474637,18.1640
1302949534637,18.0879
1302949594637,18.0959
1302949654637,18.0789
1302949714637,18.0766
1302949774637,18.1009
1302949834637,18.0846
1302949894637,18.0709
1302949954637,18.0659
1302950014637,18.0735
1302950074637,18.0762
1302950134637,18.0652
1302950194637,18.1055
1302950254637,18.1091
1302950314637,18.1341
1302950374637,18.0725
1302950434637,18.1119
1302950494637,18.0595
1302950554637,18.1040
1302950614637,18.0706
1302950674637,18.0785
1302950734637,18.0997
1302950794637,18.0852
1302950854637,18.0940
1302950914637,18.0367
1302950974637,18.0787
1302951034637,18.0785
1302951094637,18.0629
1302951154637,18.0544
1302951214637,18.0394
1302951274637,18.0713
1302951334637,18.0467
1302951394637,18.0229
1302951454637,18.0136
1302951514637,18.0483
1302951574637,17.9993
1302951634648,18.0124
1302951694648,17.9820
1302951754648,18.0372
1302951814648,18.0087
1302951874648,18.0095
1302951934648,18.0106
1302951994648,18.0342
1302952054648,18.0371
1302952114648,18.0890
1302952174648,18.0722
1302952234648,18.0383
1302952294648,18.0597
1302952354648,18.0400
1302952414648,18.0736
1302952474648,18.0776
1302952534648,18.0540
1302952594648,18.0699
1302952654648,18.0498
1302952714648,18.0317
1302952774648,18.0201
1302952834648,17.9865
1302952894648,18.0370
1302952954648,18.0370
1302953014648,18.0100
1302953074648,18.0163
1302953134648,18.0162
1302953194648,17.9756
1302953254648,18.0083
1302953314648,18.0570
1302953374648,18.0107
1302953434648,17.9791
1302953494648,17.9827
1302953554648,17.9656
1302953614648,18.0580
1302953674648,17.9886
1302953734648,18.0462
1302953794648,18.0461
1302953854648,18.0419
1302953914648,18.0244
1302953974648,18.0428
1302954034648,17.9493
1302954094648,17.9663
1302954154648,17.9798
1302954214648,18.0257
1302954274648,17.9864
1302954334648,18.0165
1302954394648,17.9705
1302954454648,17.9686
1302954514648,17.9937
1302954574648,18.0118
1302954634648,17.9281
1302954694648,17.9651
1302954754648,17.9918
1302954814648,17.9672
1302954874648,18.0428
1302954934648,18.0072
1302954994648,17.9839
1302955054648,18.0329
1302955114648,18.0390
1302955174648,18.0361
1302955234658,17.9881
1302955294658,18.0357
1302955354658,17.9771
1302955414658,18.0160
1302955474658,18.0439
1302955534658,17.9897
1302955594658,17.9579
1302955654658,18.0494
1302955714658,18.0471
1302955774658,18.0750
1302955834658,18.0433
1302955894658,18.0573
1302955954658,18.0555
1302956014658,18.0490
1302956074658,18.0626
1302956134658,18.0355
1302956194658,18.0187
1302956254659,18.0323
1302956314659,18.0199
1302956374659,18.0006
1302956434659,17.9781
1302956494659,17.9955
1302956554658,18.0375
1302956614658,18.0766
1302956674658,17.9770
1302956734658,18.0653
1302956794658,18.0710
1302956854658,18.0390
1302956914658,18.0177
1302956974658,17.9578
1302957034658,18.0229
1302957094658,17.9994
1302957154658,18.0399
1302957214658,18.0494
1302957274658,18.0245
1302957334658,18.0491
1302957394658,17.9585
1302957454658,18.0485
1302957514658,18.0603
1302957574658,18.0091
1302957634659,18.0121
1302957694659,18.0111
1302957754659,18.0436
1302957814659,18.0206
1302957874658,18.0018
1302957934658,18.0314
1302957994658,18.0370
1302958054658,18.0470
1302958114658,18.0405
1302958174658,18.0382
1302958234658,18.0888
1302958294658,18.0643
1302958354658,18.0531
1302958414658,18.0621
1302958474658,18.0477
1302958534658,18.1388
1302958594658,18.1303
1302958654658,18.1158
1302958714658,18.1174
1302958774658,18.0860
1302958834669,18.0496
1302958894669,18.1180
1302958954669,18.0598
1302959014669,17.9999
1302959074669,18.0505
1302959134669,18.1029
1302959194669,18.0890
1302959254669,18.0776
1302959314669,18.0747
1302959374669,18.0646
1302959434669,18.0981
1302959494669,18.0687
1302959554669,18.1314
1302959614669,18.1270
1302959674669,18.0490
1302959734669,18.0232
1302959794669,18.0631
1302959854669,18.0509
1302959914669,18.0819
1302959974669,18.0996
1302960034669,18.0523
1302960094669,18.0918
1302960154669,18.1378
1302960214669,18.0827
1302960274669,18.0961
1302960334669,18.1002
1302960394669,18.1002
1302960454669,18.0854
1302960514669,18.1051
1302960574669,18.1220
1302960634669,18.1043
1302960694669,18.1526
1302960754669,18.1583
1302960814669,18.1366
1302960874669,18.1322
1302960934669,18.1675
1302960994669,18.1436
1302961054669,18.1660
1302961114669,18.1357
1302961174669,18.1893
1302961234669,18.2000
1302961294669,18.1750
1302961354669,18.1846
1302961414669,18.2357
1302961474669,18.3265
1302961534669,18.2312
1302961594669,18.2431
1302961654669,18.1927
1302961714669,18.2033
1302961774669,18.1594
1302961834669,18.2281
1302961894669,18.2705
1302961954669,18.2059
1302962014669,18.1804
1302962074669,18.2591
1302962134669,18.3490
1302962194669,18.3355
1302962254669,18.3324
1302962314669,18.2746
1302962374669,18.2492
1302962434680,18.2943
1302962494680,18.2485
1302962554680,18.2542
1302962614680,18.2117
1302962674680,18.2211
1302962734680,18.2506
1302962794680,18.2614
1302962854680,18.1782
1302962914680,18.2331
1302962974680,18.2247
1302963034680,18.2444
1302963094680,18.2698
1302963154680,18.3040
1302963214680,18.2671
1302963274680,18.2584
1302963334680,18.3014
1302963394680,18.2909
1302963454680,18.3151
1302963514680,18.2562
1302963574680,18.2401
1302963634680,18.1953
1302963694680,18.2591
1302963754680,18.2151
1302963814680,18.2017
1302963874680,18.2450
1302963934680,18.2254
1302963994680,18.1749
1302964054680,18.2032
1302964114680,18.1881
1302964174680,18.1949
1302964234680,18.2278
1302964294680,18.1817
1302964354680,18.1863
1302964414680,18.1490
1302964474680,18.1214
1302964534680,18.1329
1302964594680,18.0978
1302964654680,18.1465
1302964714680,18.1087
1302964774680,18.1330
1302964834680,18.1589
1302964894680,18.1376
1302964954680,18.1870
1302965014680,18.1687
1302965074680,18.1599
1302965134680,18.1423
1302965194680,18.1388
1302965254680,18.1156
1302965314680,18.1827
1302965374680,18.2055
1302965434680,18.1344
1302965494680,18.1739
1302965554680,18.1818
1302965614680,18.1466
1302965674680,18.1735
1302965734680,18.2309
1302965794680,18.1764
1302965854680,18.1795
1302965914680,18.2262
1302965974680,18.1855
1302966034691,18.1953
1302966094691,18.1703
1302966154691,18.1451
1302966214691,18.1741
1302966274691,18.1366
1302966334691,18.1982
1302966394691,18.1776
1302966454691,18.1744
1302966514691,18.1561
1302966574691,18.1561
1302966634691,18.1513
1302966694691,18.1603
1302966754691,18.1118
1302966814691,18.0956
1302966874691,18.1269
1302966934691,18.0671
1302966994691,18.0787
1302967054691,18.0887
1302967114691,18.0431
1302967174691,18.0105
1302967234691,18.0700
1302967294691,18.0863
1302967354691,18.1018
1302967414691,18.0842
1302967474691,18.0746
1302967534691,18.1102
1302967594691,18.1752
1302967654691,18.1002
1302967714691,18.1109
1302967774691,18.0488
1302967834691,18.0793
1302967894691,18.0845
1302967954691,18.0745
1302968014691,18.0959
1302968074691,18.1531
1302968134691,18.0911
1302968194691,18.0731
1302968254691,18.1031
1302968314691,18.1215
1302968374691,18.0588
1302968434691,18.0827
1302968494691,18.1009
1302968554691,18.0702
1302968614691,18.0766
1302968674691,18.0519
1302968734691,18.0564
1302968794691,18.1069
1302968854691,18.0724
1302968914691,18.0748
1302968974691,18.0441
1302969034691,18.0406
1302969094691,18.0607
1302969154691,18.1004
1302969214691,18.1239
1302969274691,18.1426
1302969334691,18.1103
1302969394691,18.1156
1302969454691,18.1572
1302969514691,18.1638
1302969574691,18.1069
1302969634701,18.1409
1302969694701,18.1403
1302969754701,18.0970
1302969814701,18.1378
1302969874701,18.1278
1302969934701,18.1629
1302969994701,18.1185
1302970054701,18.0993
1302970114701,18.1238
1302970174701,18.0699
1302970234701,18.1538
1302970294701,18.0978
1302970354701,18.0758
1302970414701,18.1083
1302970474701,18.1242
1302970534701,18.1317
1302970594701,18.0622
1302970654701,18.0682
1302970714701,18.0385
1302970774701,18.0873
1302970834701,18.0635
1302970894701,18.0715
1302970954701,18.0938
1302971014701,18.0901
1302971074701,18.0819
1302971134701,18.0452
1302971194701,18.0354
1302971254701,18.0395
1302971314701,18.0993
1302971374701,18.0325
1302971434701,18.1021
1302971494701,18.1008
1302971554701,18.0621
1302971614701,18.0937
1302971674701,18.0796
1302971734701,18.0296
1302971794701,18.0734
1302971854701,18.0357
1302971914701,18.0639
1302971974701,18.0885
1302972034701,18.0641
1302972094701,18.0694
1302972154701,18.0362
1302972214701,18.0699
1302972274701,18.0642
1302972334701,18.0792
1302972394701,18.0621
1302972454701,18.0736
1302972514701,18.0795
1302972574701,18.1325
1302972634701,18.0868
1302972694701,18.0796
1302972754701,18.1304
1302972814701,18.0636
1302972874701,18.1024
1302972934701,18.0954
1302972994701,18.0952
1302973054701,18.0963
1302973114701,18.0892
1302973174701,18.0632
1302973234712,18.0726
1302973294712,18.1060
1302973354712,18.1213
1302973414712,18.0893
1302973474712,18.0905
1302973534712,18.0828
1302973594712,18.0645
1302973654712,18.0685
1302973714712,18.0472
1302973774712,18.0441
1302973834712,18.0021
1302973894712,18.0361
1302973954712,18.0239
1302974014712,18.0634
1302974074712,18.0082
1302974134712,18.0647
1302974194712,18.0568
1302974254712,18.1023
1302974314712,18.0746
1302974374712,18.0602
1302974434712,18.0827
1302974494712,18.0742
1302974554712,18.0565
1302974614712,18.0452
1302974674712,18.1473
1302974734712,18.0875
1302974794712,18.1036
1302974854712,18.1166
1302974914712,18.1139
1302974974712,18.1099
1302975034712,18.1115
1302975094712,18.1514
1302975154712,18.1542
1302975214712,18.1175
1302975274712,18.1282
1302975334712,18.2107
1302975394712,18.2045
1302975454712,18.1543
1302975514712,18.1370
1302975574712,18.1315
1302975634712,18.1263
1302975694712,18.1143
1302975754712,18.1063
1302975814712,18.1011
1302975874712,18.1320
1302975934712,18.2087
1302975994712,18.2259
1302976054712,18.2458
1302976114712,18.1816
1302976174712,18.1393
1302976234712,18.1820
1302976294712,18.1818
1302976354712,18.1625
1302976414712,18.1115
1302976474712,18.1283
1302976534712,18.0726
1302976594712,18.1414
1302976654712,18.0722
1302976714712,18.0972
1302976774712,18.1274
1302976834722,18.1538
1302976894722,18.1110
1302976954722,18.1143
1302977014722,18.1126
1302977074722,18.1214
1302977134722,18.1346
1302977194722,18.1353
1302977254722,18.1401
1302977314722,18.0797
1302977374722,18.0724